Time,TemperatureF,DewpointF,PressureIn,WindDirection,WindDirectionDegrees,WindSpeedMPH,WindSpeedGustMPH,Humidity,HourlyPrecipIn,Conditions,Clouds,dailyrainin,SolarRadiationWatts/m^2,SoftwareType,DateUTC
2013-02-08 00:00:00,39.5,28.7,30.26,ENE,63,0.0,0.0,65,0.00,,,0.00,0,Wunderground v.1.15,2013-02-08 05:00:00,
2013-02-08 00:01:00,39.6,28.8,30.26,ENE,63,0.0,0.0,65,0.00,,,0.00,0,Wunderground v.1.15,2013-02-08 05:01:00,
2013-02-08 00:02:00,39.5,28.7,30.26,ESE,115,0.0,0.0,65,0.00,,,0.00,0,Wunderground v.1.15,2013-02-08 05:02:00,
2013-02-08 00:08:00,39.5,29.1,30.26,NE,45,0.0,1.0,66,0.00,,,0.00,0,Wunderground v.1.15,2013-02-08 05:08:00,
2013-02-08 00:13:00,39.8,29.4,30.26,NE,34,1.0,1.0,66,0.00,,,0.00,0,Wunderground v.1.15,2013-02-08 05:13:00,
2013-02-08 00:14:00,39.8,29.4,30.26,NE,34,0.0,1.0,66,0.00,,,0.00,0,Wunderground v.1.15,2013-02-08 05:14:00,
2013-02-08 00:19:00,39.8,29.4,30.25,NE,34,0.0,1.0,66,0.00,,,0.00,0,Wunderground v.1.15,2013-02-08 05:19:00,
2013-02-08 00:24:00,39.8,29.4,30.25,NE,34,1.0,1.0,66,0.00,,,0.00,0,Wunderground v.1.15,2013-02-08 05:24:00,
2013-02-08 00:29:00,39.8,29.4,30.25,NE,54,0.0,1.0,66,0.00,,,0.00,0,Wunderground v.1.15,2013-02-08 05:29:00,
2013-02-08 00:35:00,40.0,29.2,30.25,NE,54,0.0,0.0,65,0.00,,,0.00,0,Wunderground v.1.15,2013-02-08 05:35:00,
2013-02-08 00:40:00,39.9,29.5,30.24,NNE,32,1.0,1.0,66,0.00,,,0.00,0,Wunderground v.1.15,2013-02-08 05:40:00,
2013-02-08 00:46:00,39.9,29.8,30.24,SE,134,0.0,5.0,67,0.00,,,0.00,0,Wunderground v.1.15,2013-02-08 05:46:00,
2013-02-08 00:52:00,39.9,29.8,30.23,SE,130,0.0,1.0,67,0.00,,,0.00,0,Wunderground v.1.15,2013-02-08 05:52:00,
2013-02-08 00:58:00,40.1,30.0,30.23,East,84,0.0,1.0,67,0.00,,,0.00,0,Wunderground v.1.15,2013-02-08 05:58:00,
2013-02-08 01:04:00,39.9,30.2,30.23,ENE,78,1.0,1.0,68,0.00,,,0.00,0,Wunderground v.1.15,2013-02-08 06:04:00,
2013-02-08 01:09:00,39.8,30.1,30.23,ENE,63,0.0,1.0,68,0.00,,,0.00,0,Wunderground v.1.15,2013-02-08 06:09:00,
2013-02-08 01:15:00,40.1,30.4,30.23,NE,54,0.0,2.0,68,0.00,,,0.00,0,Wunderground v.1.15,2013-02-08 06:15:00,
2013-02-08 01:20:00,40.0,30.3,30.23,NE,47,0.0,0.0,68,0.00,,,0.00,0,Wunderground v.1.15,2013-02-08 06:20:00,
2013-02-08 01:25:00,40.2,30.5,30.22,ENE,66,0.0,1.0,68,0.00,,,0.00,0,Wunderground v.1.15,2013-02-08 06:25:00,
2013-02-08 01:30:00,40.3,30.6,30.22,NE,50,5.0,5.0,68,0.00,,,0.00,0,Wunderground v.1.15,2013-02-08 06:30:00,
2013-02-08 01:35:00,40.3,30.9,30.22,NE,43,0.0,5.0,69,0.00,,,0.00,0,Wunderground v.1.15,2013-02-08 06:35:00,
2013-02-08 01:41:00,40.3,30.6,30.22,ESE,123,1.0,1.0,68,0.00,,,0.00,0,Wunderground v.1.15,2013-02-08 06:41:00,
2013-02-08 01:46:00,40.4,30.7,30.21,ESE,118,0.0,4.0,68,0.00,,,0.00,0,Wunderground v.1.15,2013-02-08 06:46:00,
2013-02-08 01:52:00,40.4,30.7,30.21,NE,52,1.0,1.0,68,0.00,,,0.00,0,Wunderground v.1.15,2013-02-08 06:52:00,
2013-02-08 01:57:00,40.3,30.6,30.20,NE,34,0.0,2.0,68,0.00,,,0.00,0,Wunderground v.1.15,2013-02-08 06:57:00,
2013-02-08 02:02:00,40.3,30.6,30.20,NNE,30,1.0,6.0,68,0.00,,,0.00,0,Wunderground v.1.15,2013-02-08 07:02:00,
2013-02-08 02:07:00,40.5,31.1,30.20,NE,56,1.0,6.0,69,0.00,,,0.00,0,Wunderground v.1.15,2013-02-08 07:07:00,
2013-02-08 02:12:00,40.4,31.0,30.20,NE,51,0.0,2.0,69,0.00,,,0.00,0,Wunderground v.1.15,2013-02-08 07:12:00,
2013-02-08 02:17:00,40.7,31.3,30.20,ENE,78,6.0,8.0,69,0.00,,,0.00,0,Wunderground v.1.15,2013-02-08 07:17:00,
2013-02-08 02:22:00,40.6,31.2,30.19,ENE,63,1.0,7.0,69,0.00,,,0.00,0,Wunderground v.1.15,2013-02-08 07:22:00,
2013-02-08 02:27:00,40.8,31.4,30.19,NNE,26,0.0,7.0,69,0.00,,,0.00,0,Wunderground v.1.15,2013-02-08 07:27:00,
2013-02-08 02:32:00,40.9,30.4,30.19,NNE,31,1.0,6.0,66,0.00,,,0.00,0,Wunderground v.1.15,2013-02-08 07:32:00,
2013-02-08 02:37:00,40.8,30.3,30.18,NE,41,0.0,6.0,66,0.00,,,0.00,0,Wunderground v.1.15,2013-02-08 07:37:00,
2013-02-08 02:42:00,40.9,30.4,30.18,NE,51,1.0,3.0,66,0.00,,,0.00,0,Wunderground v.1.15,2013-02-08 07:42:00,
2013-02-08 02:47:00,40.9,30.4,30.18,NE,54,1.0,6.0,66,0.00,,,0.00,0,Wunderground v.1.15,2013-02-08 07:47:00,
2013-02-08 02:52:00,40.9,30.4,30.17,East,96,1.0,6.0,66,0.00,,,0.00,0,Wunderground v.1.15,2013-02-08 07:52:00,
2013-02-08 02:57:00,41.1,30.6,30.17,ESE,102,0.0,6.0,66,0.00,,,0.00,0,Wunderground v.1.15,2013-02-08 07:57:00,
2013-02-08 03:02:00,41.0,30.1,30.17,NNE,15,1.0,6.0,65,0.00,,,0.00,0,Wunderground v.1.15,2013-02-08 08:02:00,
2013-02-08 03:07:00,41.0,30.5,30.16,North,0,3.0,6.0,66,0.00,,,0.00,0,Wunderground v.1.15,2013-02-08 08:07:00,
2013-02-08 03:12:00,41.0,30.5,30.16,ENE,57,0.0,4.0,66,0.00,,,0.00,0,Wunderground v.1.15,2013-02-08 08:12:00,
2013-02-08 03:17:00,40.9,30.4,30.15,NE,55,1.0,9.0,66,0.00,,,0.00,0,Wunderground v.1.15,2013-02-08 08:17:00,
2013-02-08 03:22:00,40.9,30.4,30.15,NE,45,0.0,10.0,66,0.00,,,0.00,0,Wunderground v.1.15,2013-02-08 08:22:00,
2013-02-08 03:27:00,41.1,30.6,30.15,NE,52,0.0,10.0,66,0.00,,,0.00,0,Wunderground v.1.15,2013-02-08 08:27:00,
2013-02-08 03:32:00,41.2,30.7,30.14,NE,54,0.0,7.0,66,0.00,,,0.00,0,Wunderground v.1.15,2013-02-08 08:32:00,
2013-02-08 03:37:00,41.1,30.6,30.14,NE,37,0.0,9.0,66,0.00,,,0.00,0,Wunderground v.1.15,2013-02-08 08:37:00,
2013-02-08 03:42:00,41.2,31.1,30.14,NNE,30,2.0,9.0,67,0.00,,,0.00,0,Wunderground v.1.15,2013-02-08 08:42:00,
2013-02-08 03:47:00,41.2,31.1,30.13,NE,39,1.0,9.0,67,0.00,,,0.00,0,Wunderground v.1.15,2013-02-08 08:47:00,
2013-02-08 03:52:00,41.3,31.2,30.13,NE,38,6.0,14.0,67,0.00,,,0.00,0,Wunderground v.1.15,2013-02-08 08:52:00,
2013-02-08 03:57:00,41.3,31.2,30.13,NE,40,0.0,14.0,67,0.00,,,0.00,0,Wunderground v.1.15,2013-02-08 08:57:00,
2013-02-08 04:02:00,41.4,31.3,30.13,ENE,63,6.0,6.0,67,0.00,,,0.00,0,Wunderground v.1.15,2013-02-08 09:02:00,
2013-02-08 04:07:00,41.4,31.6,30.13,ENE,74,1.0,11.0,68,0.00,,,0.00,0,Wunderground v.1.15,2013-02-08 09:07:00,
2013-02-08 04:12:00,41.5,31.7,30.12,ENE,60,3.0,5.0,68,0.00,,,0.00,0,Wunderground v.1.15,2013-02-08 09:12:00,
2013-02-08 04:17:00,41.6,31.8,30.12,NE,50,2.0,6.0,68,0.00,,,0.00,0,Wunderground v.1.15,2013-02-08 09:17:00,
2013-02-08 04:23:00,41.6,31.8,30.12,NE,44,1.0,11.0,68,0.00,,,0.00,0,Wunderground v.1.15,2013-02-08 09:23:00,
2013-02-08 04:28:00,41.5,31.7,30.12,NE,49,1.0,11.0,68,0.00,,,0.00,0,Wunderground v.1.15,2013-02-08 09:28:00,
2013-02-08 04:33:00,41.7,32.3,30.11,NE,48,9.0,10.0,69,0.00,,,0.00,0,Wunderground v.1.15,2013-02-08 09:33:00,
2013-02-08 04:38:00,41.7,31.9,30.11,ENE,57,1.0,10.0,68,0.00,,,0.00,0,Wunderground v.1.15,2013-02-08 09:38:00,
2013-02-08 04:43:00,41.9,31.7,30.11,ENE,60,0.0,7.0,67,0.00,,,0.00,0,Wunderground v.1.15,2013-02-08 09:43:00,
2013-02-08 04:48:00,42.0,31.5,30.10,NE,44,0.0,7.0,66,0.00,,,0.00,0,Wunderground v.1.15,2013-02-08 09:48:00,
2013-02-08 04:53:00,41.9,31.4,30.10,NNE,27,1.0,6.0,66,0.00,,,0.00,0,Wunderground v.1.15,2013-02-08 09:53:00,
2013-02-08 04:58:00,41.9,31.4,30.10,North,1,2.0,7.0,66,0.00,,,0.00,0,Wunderground v.1.15,2013-02-08 09:58:00,
2013-02-08 05:03:00,41.9,31.7,30.10,NE,41,1.0,3.0,67,0.00,,,0.00,0,Wunderground v.1.15,2013-02-08 10:03:00,
2013-02-08 05:08:00,42.0,31.8,30.10,NE,45,0.0,5.0,67,0.00,,,0.00,0,Wunderground v.1.15,2013-02-08 10:08:00,
2013-02-08 05:14:00,41.9,31.7,30.09,NE,56,0.0,7.0,67,0.00,,,0.00,0,Wunderground v.1.15,2013-02-08 10:14:00,
2013-02-08 05:19:00,41.8,31.6,30.09,NNE,26,1.0,7.0,67,0.00,,,0.00,0,Wunderground v.1.15,2013-02-08 10:19:00,
2013-02-08 05:24:00,41.7,31.5,30.09,North,0,0.0,4.0,67,0.00,,,0.00,0,Wunderground v.1.15,2013-02-08 10:24:00,
2013-02-08 05:29:00,41.7,31.5,30.09,East,81,0.0,4.0,67,0.00,,,0.00,0,Wunderground v.1.15,2013-02-08 10:29:00,
2013-02-08 05:34:00,41.7,31.9,30.08,East,93,0.0,2.0,68,0.00,,,0.00,0,Wunderground v.1.15,2013-02-08 10:34:00,
2013-02-08 05:39:00,41.9,32.1,30.08,NE,38,1.0,3.0,68,0.00,,,0.00,0,Wunderground v.1.15,2013-02-08 10:39:00,
2013-02-08 05:44:00,41.9,32.1,30.08,NNE,25,0.0,2.0,68,0.00,,,0.00,0,Wunderground v.1.15,2013-02-08 10:44:00,
2013-02-08 05:49:00,41.9,32.1,30.07,NNE,20,0.0,4.0,68,0.00,,,0.00,0,Wunderground v.1.15,2013-02-08 10:49:00,
2013-02-08 05:54:00,41.8,32.4,30.07,ENE,76,0.0,4.0,69,0.00,,,0.00,0,Wunderground v.1.15,2013-02-08 10:54:00,
2013-02-08 05:59:00,41.8,32.4,30.06,NE,39,1.0,5.0,69,0.00,,,0.00,0,Wunderground v.1.15,2013-02-08 10:59:00,
2013-02-08 06:04:00,41.8,32.4,30.06,NNE,26,0.0,9.0,69,0.00,,,0.00,0,Wunderground v.1.15,2013-02-08 11:04:00,
2013-02-08 06:09:00,42.0,32.9,30.06,NNE,32,5.0,9.0,70,0.00,,,0.00,0,Wunderground v.1.15,2013-02-08 11:09:00,
2013-02-08 06:14:00,41.8,33.1,30.06,NE,40,0.0,6.0,71,0.00,,,0.00,0,Wunderground v.1.15,2013-02-08 11:14:00,
2013-02-08 06:19:00,41.6,32.9,30.05,NNE,29,2.0,6.0,71,0.00,,,0.00,0,Wunderground v.1.15,2013-02-08 11:19:00,
2013-02-08 06:24:00,41.8,33.1,30.05,NNE,29,1.0,3.0,71,0.00,,,0.00,0,Wunderground v.1.15,2013-02-08 11:24:00,
2013-02-08 06:29:00,41.8,33.1,30.05,NE,34,5.0,5.0,71,0.00,,,0.00,0,Wunderground v.1.15,2013-02-08 11:29:00,
2013-02-08 06:34:00,41.6,33.6,30.05,ENE,62,4.0,5.0,73,0.00,,,0.00,0,Wunderground v.1.15,2013-02-08 11:34:00,
2013-02-08 06:39:00,41.8,33.8,30.04,NNE,16,0.0,12.0,73,0.00,,,0.00,0,Wunderground v.1.15,2013-02-08 11:39:00,
2013-02-08 06:44:00,42.2,34.2,30.04,NE,46,1.0,6.0,73,0.00,,,0.00,0,Wunderground v.1.15,2013-02-08 11:44:00,
2013-02-08 06:49:00,42.2,34.2,30.04,NE,56,2.0,6.0,73,0.00,,,0.00,0,Wunderground v.1.15,2013-02-08 11:49:00,
2013-02-08 06:55:00,42.3,34.6,30.04,NE,42,1.0,9.0,74,0.00,,,0.00,0,Wunderground v.1.15,2013-02-08 11:55:00,
2013-02-08 07:00:00,42.5,34.8,30.04,NNE,19,2.0,2.0,74,0.00,,,0.00,0,Wunderground v.1.15,2013-02-08 12:00:00,
2013-02-08 07:05:00,42.5,34.8,30.04,NE,53,3.0,9.0,74,0.00,,,0.00,0,Wunderground v.1.15,2013-02-08 12:05:00,
2013-02-08 07:10:00,42.3,34.6,30.03,NE,37,2.0,2.0,74,0.00,,,0.00,0,Wunderground v.1.15,2013-02-08 12:10:00,
2013-02-08 07:15:00,42.4,34.4,30.03,ENE,61,1.0,4.0,73,0.00,,,0.00,0,Wunderground v.1.15,2013-02-08 12:15:00,
2013-02-08 07:20:00,42.2,34.5,30.03,NNW,331,1.0,1.0,74,0.00,,,0.00,0,Wunderground v.1.15,2013-02-08 12:20:00,
2013-02-08 07:25:00,42.2,34.5,30.03,NE,47,1.0,8.0,74,0.00,,,0.00,0,Wunderground v.1.15,2013-02-08 12:25:00,
2013-02-08 07:30:00,42.0,34.3,30.03,NE,39,3.0,6.0,74,0.00,,,0.00,0,Wunderground v.1.15,2013-02-08 12:30:00,
2013-02-08 07:35:00,42.0,34.3,30.03,ENE,65,1.0,7.0,74,0.00,,,0.00,0,Wunderground v.1.15,2013-02-08 12:35:00,
2013-02-08 07:40:00,41.9,34.2,30.02,NNE,30,1.0,3.0,74,0.00,,,0.00,0,Wunderground v.1.15,2013-02-08 12:40:00,
2013-02-08 07:45:00,41.9,34.2,30.02,NE,54,3.0,11.0,74,0.00,,,0.00,0,Wunderground v.1.15,2013-02-08 12:45:00,
2013-02-08 07:50:00,42.0,34.3,30.02,NE,42,2.0,4.0,74,0.00,,,0.00,0,Wunderground v.1.15,2013-02-08 12:50:00,
2013-02-08 07:55:00,42.0,34.6,30.02,NE,47,0.0,9.0,75,0.00,,,0.00,0,Wunderground v.1.15,2013-02-08 12:55:00,
2013-02-08 08:00:00,42.1,34.7,30.01,WNW,296,2.0,2.0,75,0.00,,,0.00,0,Wunderground v.1.15,2013-02-08 13:00:00,
2013-02-08 08:05:00,42.3,34.9,30.01,NE,46,0.0,11.0,75,0.00,,,0.00,0,Wunderground v.1.15,2013-02-08 13:05:00,
2013-02-08 08:10:00,42.1,34.7,30.00,NE,47,3.0,8.0,75,0.00,,,0.00,0,Wunderground v.1.15,2013-02-08 13:10:00,
2013-02-08 08:15:00,42.2,34.8,30.00,NNE,17,3.0,16.0,75,0.00,,,0.00,0,Wunderground v.1.15,2013-02-08 13:15:00,
2013-02-08 08:20:00,42.3,34.9,30.00,NE,48,3.0,4.0,75,0.00,,,0.00,0,Wunderground v.1.15,2013-02-08 13:20:00,
2013-02-08 08:25:00,42.5,35.1,30.00,NNE,18,5.0,8.0,75,0.00,,,0.00,0,Wunderground v.1.15,2013-02-08 13:25:00,
2013-02-08 08:30:00,42.3,34.9,30.00,North,349,2.0,2.0,75,0.00,,,0.00,0,Wunderground v.1.15,2013-02-08 13:30:00,
2013-02-08 08:35:00,42.3,34.9,29.99,North,0,2.0,8.0,75,0.00,,,0.00,0,Wunderground v.1.15,2013-02-08 13:35:00,
2013-02-08 08:40:00,42.3,34.9,29.99,NE,56,8.0,9.0,75,0.00,,,0.00,0,Wunderground v.1.15,2013-02-08 13:40:00,
2013-02-08 08:45:00,42.3,34.9,29.98,NE,38,7.0,14.0,75,0.00,,,0.00,0,Wunderground v.1.15,2013-02-08 13:45:00,
2013-02-08 08:50:00,42.3,34.9,29.98,NE,41,5.0,8.0,75,0.00,,,0.00,0,Wunderground v.1.15,2013-02-08 13:50:00,
2013-02-08 08:55:00,42.1,34.7,29.97,NE,46,1.0,10.0,75,0.00,,,0.00,0,Wunderground v.1.15,2013-02-08 13:55:00,
2013-02-08 09:00:00,42.0,34.6,29.97,NNE,24,3.0,6.0,75,0.00,,,0.00,0,Wunderground v.1.15,2013-02-08 14:00:00,
2013-02-08 09:05:00,42.1,35.1,29.97,ENE,69,7.0,14.0,76,0.00,,,0.00,0,Wunderground v.1.15,2013-02-08 14:05:00,
2013-02-08 09:10:00,41.9,34.6,29.96,NE,34,5.0,14.0,75,0.00,,,0.00,0,Wunderground v.1.15,2013-02-08 14:10:00,
2013-02-08 09:15:00,42.0,34.6,29.95,NNE,29,5.0,16.0,75,0.00,,,0.00,0,Wunderground v.1.15,2013-02-08 14:15:00,
2013-02-08 09:20:00,41.8,34.8,29.95,NNE,12,2.0,7.0,76,0.00,,,0.00,0,Wunderground v.1.15,2013-02-08 14:20:00,
2013-02-08 09:25:00,41.8,34.8,29.95,NE,47,2.0,18.0,76,0.00,,,0.00,0,Wunderground v.1.15,2013-02-08 14:25:00,
2013-02-08 09:30:00,41.9,34.9,29.94,NE,47,2.0,5.0,76,0.00,,,0.00,0,Wunderground v.1.15,2013-02-08 14:30:00,
2013-02-08 09:35:00,41.9,34.9,29.94,NE,49,3.0,11.0,76,0.00,,,0.00,0,Wunderground v.1.15,2013-02-08 14:35:00,
2013-02-08 09:40:00,41.8,34.8,29.93,ENE,72,1.0,8.0,76,0.00,,,0.00,0,Wunderground v.1.15,2013-02-08 14:40:00,
2013-02-08 09:45:00,41.9,34.9,29.93,NE,46,2.0,17.0,76,0.00,,,0.00,0,Wunderground v.1.15,2013-02-08 14:45:00,
2013-02-08 09:50:00,41.7,34.7,29.92,NE,35,16.0,16.0,76,0.00,,,0.00,0,Wunderground v.1.15,2013-02-08 14:50:00,
2013-02-08 09:55:00,41.9,34.9,29.92,NE,39,3.0,17.0,76,0.00,,,0.00,0,Wunderground v.1.15,2013-02-08 14:55:00,
2013-02-08 10:00:00,41.7,34.7,29.92,NE,44,2.0,4.0,76,0.00,,,0.00,0,Wunderground v.1.15,2013-02-08 15:00:00,
2013-02-08 10:05:00,41.7,34.7,29.91,NNE,25,1.0,18.0,76,0.00,,,0.00,0,Wunderground v.1.15,2013-02-08 15:05:00,
2013-02-08 10:10:00,41.7,34.7,29.91,NE,36,8.0,9.0,76,0.00,,,0.00,0,Wunderground v.1.15,2013-02-08 15:10:00,
2013-02-08 10:15:00,41.8,34.8,29.90,NE,42,11.0,14.0,76,0.00,,,0.00,0,Wunderground v.1.15,2013-02-08 15:15:00,
2013-02-08 10:20:00,41.6,34.6,29.90,NNE,28,2.0,10.0,76,0.00,,,0.00,0,Wunderground v.1.15,2013-02-08 15:20:00,
2013-02-08 10:25:00,41.7,34.7,29.89,NNE,33,6.0,17.0,76,0.00,,,0.00,0,Wunderground v.1.15,2013-02-08 15:25:00,
2013-02-08 10:30:00,41.5,34.5,29.89,NE,35,14.0,14.0,76,0.00,,,0.00,0,Wunderground v.1.15,2013-02-08 15:30:00,
2013-02-08 10:35:00,41.4,34.4,29.88,NE,53,10.0,20.0,76,0.00,,,0.00,0,Wunderground v.1.15,2013-02-08 15:35:00,
2013-02-08 10:41:00,41.5,34.5,29.88,NE,52,2.0,18.0,76,0.00,,,0.00,0,Wunderground v.1.15,2013-02-08 15:41:00,
2013-02-08 10:46:00,41.5,34.5,29.87,ENE,63,17.0,19.0,76,0.00,,,0.00,0,Wunderground v.1.15,2013-02-08 15:46:00,
2013-02-08 10:51:00,41.4,34.4,29.87,East,83,3.0,17.0,76,0.00,,,0.00,0,Wunderground v.1.15,2013-02-08 15:51:00,
2013-02-08 10:56:00,41.2,34.2,29.87,ENE,57,10.0,20.0,76,0.00,,,0.00,0,Wunderground v.1.15,2013-02-08 15:56:00,
2013-02-08 11:01:00,41.2,34.2,29.87,NNE,16,1.0,8.0,76,0.00,,,0.00,0,Wunderground v.1.15,2013-02-08 16:01:00,
2013-02-08 11:06:00,41.0,34.0,29.86,North,7,13.0,20.0,76,0.00,,,0.00,0,Wunderground v.1.15,2013-02-08 16:06:00,
2013-02-08 11:11:00,41.0,34.0,29.85,NNE,30,9.0,14.0,76,0.00,,,0.00,0,Wunderground v.1.15,2013-02-08 16:11:00,
2013-02-08 11:16:00,41.0,34.0,29.85,NE,55,3.0,19.0,76,0.00,,,0.00,0,Wunderground v.1.15,2013-02-08 16:16:00,
2013-02-08 11:21:00,41.1,34.1,29.84,NE,49,13.0,13.0,76,0.00,,,0.00,0,Wunderground v.1.15,2013-02-08 16:21:00,
2013-02-08 11:26:00,40.9,33.9,29.84,NNE,33,10.0,14.0,76,0.00,,,0.00,0,Wunderground v.1.15,2013-02-08 16:26:00,
2013-02-08 11:31:00,40.8,33.8,29.84,NE,40,5.0,13.0,76,0.00,,,0.00,0,Wunderground v.1.15,2013-02-08 16:31:00,
2013-02-08 11:36:00,40.7,33.7,29.83,North,9,3.0,19.0,76,0.00,,,0.00,0,Wunderground v.1.15,2013-02-08 16:36:00,
2013-02-08 11:41:00,40.7,33.7,29.82,ENE,61,4.0,20.0,76,0.00,,,0.00,0,Wunderground v.1.15,2013-02-08 16:41:00,
2013-02-08 11:46:00,40.9,33.9,29.81,NNE,18,4.0,20.0,76,0.00,,,0.00,0,Wunderground v.1.15,2013-02-08 16:46:00,
2013-02-08 11:51:00,40.7,33.7,29.81,NE,47,23.0,23.0,76,0.00,,,0.00,0,Wunderground v.1.15,2013-02-08 16:51:00,
2013-02-08 11:56:00,40.7,33.7,29.80,NNE,29,2.0,23.0,76,0.00,,,0.00,0,Wunderground v.1.15,2013-02-08 16:56:00,
2013-02-08 12:01:00,40.7,33.7,29.79,NE,53,10.0,15.0,76,0.00,,,0.00,0,Wunderground v.1.15,2013-02-08 17:01:00,
2013-02-08 12:06:00,40.5,33.5,29.79,NE,34,6.0,21.0,76,0.00,,,0.00,0,Wunderground v.1.15,2013-02-08 17:06:00,
2013-02-08 12:11:00,40.5,33.5,29.78,NE,45,3.0,14.0,76,0.00,,,0.00,0,Wunderground v.1.15,2013-02-08 17:11:00,
2013-02-08 12:16:00,40.4,33.4,29.76,NE,43,5.0,26.0,76,0.00,,,0.00,0,Wunderground v.1.15,2013-02-08 17:16:00,
2013-02-08 12:21:00,40.5,33.5,29.76,North,8,7.0,23.0,76,0.00,,,0.00,0,Wunderground v.1.15,2013-02-08 17:21:00,
2013-02-08 12:26:00,40.3,33.3,29.75,NE,44,14.0,23.0,76,0.00,,,0.00,0,Wunderground v.1.15,2013-02-08 17:26:00,
2013-02-08 12:31:00,40.3,33.3,29.74,NNE,23,20.0,20.0,76,0.00,,,0.00,0,Wunderground v.1.15,2013-02-08 17:31:00,
2013-02-08 12:36:00,40.0,33.0,29.74,NNE,20,14.0,23.0,76,0.00,,,0.00,0,Wunderground v.1.15,2013-02-08 17:36:00,
2013-02-08 12:41:00,40.1,33.1,29.73,NE,53,10.0,19.0,76,0.00,,,0.00,0,Wunderground v.1.15,2013-02-08 17:41:00,
2013-02-08 12:46:00,39.8,32.8,29.73,NE,44,20.0,24.0,76,0.00,,,0.00,0,Wunderground v.1.15,2013-02-08 17:46:00,
2013-02-08 12:51:00,39.8,32.8,29.72,NNE,22,6.0,15.0,76,0.00,,,0.00,0,Wunderground v.1.15,2013-02-08 17:51:00,
2013-02-08 12:56:00,39.6,32.7,29.72,NE,34,9.0,16.0,76,0.00,,,0.00,0,Wunderground v.1.15,2013-02-08 17:56:00,
2013-02-08 13:01:00,39.3,32.4,29.72,NE,44,3.0,17.0,76,0.00,,,0.00,0,Wunderground v.1.15,2013-02-08 18:01:00,
2013-02-08 13:06:00,39.3,32.4,29.71,NE,46,13.0,23.0,76,0.00,,,0.00,0,Wunderground v.1.15,2013-02-08 18:06:00,
2013-02-08 13:11:00,39.1,32.2,29.71,NNE,28,10.0,19.0,76,0.00,,,0.00,0,Wunderground v.1.15,2013-02-08 18:11:00,
2013-02-08 13:16:00,38.8,31.9,29.70,ENE,62,28.0,28.0,76,0.00,,,0.00,0,Wunderground v.1.15,2013-02-08 18:16:00,
2013-02-08 13:21:00,38.8,31.9,29.69,NE,37,3.0,25.0,76,0.00,,,0.00,0,Wunderground v.1.15,2013-02-08 18:21:00,
2013-02-08 13:26:00,38.5,31.6,29.69,NE,51,16.0,25.0,76,0.00,,,0.00,0,Wunderground v.1.15,2013-02-08 18:26:00,
2013-02-08 13:31:00,38.4,31.5,29.69,NNE,20,13.0,18.0,76,0.00,,,0.00,0,Wunderground v.1.15,2013-02-08 18:31:00,
2013-02-08 13:36:00,38.4,31.5,29.69,NNE,20,10.0,23.0,76,0.00,,,0.00,0,Wunderground v.1.15,2013-02-08 18:36:00,
2013-02-08 13:41:00,38.2,31.3,29.69,NE,51,7.0,15.0,76,0.00,,,0.00,0,Wunderground v.1.15,2013-02-08 18:41:00,
2013-02-08 13:46:00,38.2,31.3,29.68,NNE,24,9.0,19.0,76,0.00,,,0.00,0,Wunderground v.1.15,2013-02-08 18:46:00,
2013-02-08 13:51:00,37.9,31.0,29.68,NE,45,10.0,19.0,76,0.00,,,0.00,0,Wunderground v.1.15,2013-02-08 18:51:00,
2013-02-08 13:56:00,37.9,31.0,29.67,NNE,26,8.0,21.0,76,0.00,,,0.00,0,Wunderground v.1.15,2013-02-08 18:56:00,
2013-02-08 14:02:00,37.9,31.0,29.67,North,11,6.0,20.0,76,0.00,,,0.00,0,Wunderground v.1.15,2013-02-08 19:02:00,
2013-02-08 14:07:00,37.9,31.0,29.67,NE,35,8.0,20.0,76,0.00,,,0.00,0,Wunderground v.1.15,2013-02-08 19:07:00,
2013-02-08 14:12:00,37.6,30.7,29.66,NE,49,12.0,15.0,76,0.00,,,0.00,0,Wunderground v.1.15,2013-02-08 19:12:00,
2013-02-08 14:17:00,37.7,30.8,29.66,East,91,3.0,23.0,76,0.00,,,0.00,0,Wunderground v.1.15,2013-02-08 19:17:00,
2013-02-08 14:22:00,37.7,30.8,29.65,NNE,18,14.0,24.0,76,0.00,,,0.00,0,Wunderground v.1.15,2013-02-08 19:22:00,
2013-02-08 14:27:00,37.7,30.8,29.65,NNE,30,8.0,24.0,76,0.00,,,0.00,0,Wunderground v.1.15,2013-02-08 19:27:00,
2013-02-08 14:32:00,37.9,31.0,29.65,NNE,28,6.0,22.0,76,0.00,,,0.00,0,Wunderground v.1.15,2013-02-08 19:32:00,
2013-02-08 14:37:00,37.7,30.8,29.64,NE,48,5.0,24.0,76,0.00,,,0.00,0,Wunderground v.1.15,2013-02-08 19:37:00,
2013-02-08 14:42:00,37.9,31.0,29.64,NE,45,10.0,16.0,76,0.00,,,0.00,0,Wunderground v.1.15,2013-02-08 19:42:00,
2013-02-08 14:47:00,37.9,31.0,29.64,NNE,26,12.0,19.0,76,0.00,,,0.00,0,Wunderground v.1.15,2013-02-08 19:47:00,
2013-02-08 14:52:00,37.8,30.9,29.64,ENE,69,6.0,14.0,76,0.00,,,0.00,0,Wunderground v.1.15,2013-02-08 19:52:00,
2013-02-08 14:57:00,37.9,31.0,29.63,NNE,30,10.0,23.0,76,0.00,,,0.00,0,Wunderground v.1.15,2013-02-08 19:57:00,
2013-02-08 15:02:00,37.8,30.9,29.64,North,357,22.0,22.0,76,0.00,,,0.00,0,Wunderground v.1.15,2013-02-08 20:02:00,
2013-02-08 15:07:00,37.8,30.9,29.63,North,354,10.0,22.0,76,0.00,,,0.00,0,Wunderground v.1.15,2013-02-08 20:07:00,
2013-02-08 15:12:00,37.9,31.0,29.63,NNE,20,11.0,28.0,76,0.00,,,0.00,0,Wunderground v.1.15,2013-02-08 20:12:00,
2013-02-08 15:17:00,37.8,30.9,29.63,North,6,8.0,28.0,76,0.00,,,0.00,0,Wunderground v.1.15,2013-02-08 20:17:00,
2013-02-08 15:22:00,37.9,31.0,29.63,ENE,63,7.0,12.0,76,0.00,,,0.00,0,Wunderground v.1.15,2013-02-08 20:22:00,
2013-02-08 15:27:00,37.8,30.9,29.63,NE,42,8.0,20.0,76,0.00,,,0.00,0,Wunderground v.1.15,2013-02-08 20:27:00,
2013-02-08 15:32:00,37.8,30.9,29.63,NNE,17,6.0,15.0,76,0.00,,,0.00,0,Wunderground v.1.15,2013-02-08 20:32:00,
2013-02-08 15:37:00,37.6,30.7,29.63,NE,39,8.0,24.0,76,0.00,,,0.00,0,Wunderground v.1.15,2013-02-08 20:37:00,
2013-02-08 15:42:00,37.8,30.9,29.63,North,9,18.0,21.0,76,0.00,,,0.00,0,Wunderground v.1.15,2013-02-08 20:42:00,
2013-02-08 15:47:00,37.8,30.9,29.63,NE,50,12.0,21.0,76,0.00,,,0.00,0,Wunderground v.1.15,2013-02-08 20:47:00,
2013-02-08 15:52:00,37.6,30.7,29.63,NE,35,7.0,13.0,76,0.00,,,0.00,0,Wunderground v.1.15,2013-02-08 20:52:00,
2013-02-08 15:57:00,37.6,30.7,29.63,ENE,61,4.0,19.0,76,0.00,,,0.00,0,Wunderground v.1.15,2013-02-08 20:57:00,
2013-02-08 16:02:00,37.4,30.5,29.63,NE,35,7.0,12.0,76,0.00,,,0.00,0,Wunderground v.1.15,2013-02-08 21:02:00,
2013-02-08 16:07:00,37.3,30.4,29.63,NNE,32,5.0,19.0,76,0.00,,,0.00,0,Wunderground v.1.15,2013-02-08 21:07:00,
2013-02-08 16:12:00,37.3,30.4,29.62,NE,44,15.0,15.0,76,0.00,,,0.00,0,Wunderground v.1.15,2013-02-08 21:12:00,
2013-02-08 16:17:00,37.0,30.1,29.62,North,0,7.0,19.0,76,0.00,,,0.00,0,Wunderground v.1.15,2013-02-08 21:17:00,
2013-02-08 16:22:00,37.0,30.1,29.62,ENE,61,6.0,15.0,76,0.00,,,0.00,0,Wunderground v.1.15,2013-02-08 21:22:00,
2013-02-08 16:27:00,37.0,29.8,29.62,NNE,21,4.0,16.0,75,0.00,,,0.00,0,Wunderground v.1.15,2013-02-08 21:27:00,
2013-02-08 16:32:00,36.7,29.8,29.62,NNE,18,9.0,16.0,76,0.00,,,0.00,0,Wunderground v.1.15,2013-02-08 21:32:00,
2013-02-08 16:37:00,36.6,29.7,29.61,ESE,111,6.0,16.0,76,0.00,,,0.00,0,Wunderground v.1.15,2013-02-08 21:37:00,
2013-02-08 16:42:00,36.7,29.8,29.61,NE,43,4.0,16.0,76,0.00,,,0.00,0,Wunderground v.1.15,2013-02-08 21:42:00,
2013-02-08 16:47:00,36.4,29.6,29.61,NE,54,9.0,16.0,76,0.00,,,0.00,0,Wunderground v.1.15,2013-02-08 21:47:00,
2013-02-08 16:52:00,36.4,29.6,29.61,NNE,33,4.0,16.0,76,0.00,,,0.00,0,Wunderground v.1.15,2013-02-08 21:52:00,
2013-02-08 16:57:00,36.5,29.7,29.60,NE,35,7.0,18.0,76,0.00,,,0.00,0,Wunderground v.1.15,2013-02-08 21:57:00,
2013-02-08 17:02:00,36.2,29.4,29.60,NNE,28,10.0,13.0,76,0.00,,,0.00,0,Wunderground v.1.15,2013-02-08 22:02:00,
2013-02-08 17:07:00,36.3,29.5,29.60,North,1,5.0,17.0,76,0.00,,,0.00,0,Wunderground v.1.15,2013-02-08 22:07:00,
2013-02-08 17:12:00,36.1,28.9,29.60,North,7,19.0,20.0,75,0.00,,,0.00,0,Wunderground v.1.15,2013-02-08 22:12:00,
2013-02-08 17:17:00,35.9,29.1,29.60,NNE,18,15.0,20.0,76,0.00,,,0.00,0,Wunderground v.1.15,2013-02-08 22:17:00,
2013-02-08 17:22:00,36.0,28.8,29.59,NE,51,2.0,12.0,75,0.00,,,0.00,0,Wunderground v.1.15,2013-02-08 22:22:00,
2013-02-08 17:27:00,35.9,29.1,29.59,NE,52,17.0,23.0,76,0.00,,,0.00,0,Wunderground v.1.15,2013-02-08 22:27:00,
2013-02-08 17:32:00,35.8,29.0,29.59,North,357,7.0,14.0,76,0.00,,,0.00,0,Wunderground v.1.15,2013-02-08 22:32:00,
2013-02-08 17:37:00,35.7,28.6,29.59,North,10,6.0,14.0,75,0.00,,,0.00,0,Wunderground v.1.15,2013-02-08 22:37:00,
2013-02-08 17:43:00,35.6,28.5,29.59,NNE,14,6.0,14.0,75,0.00,,,0.00,0,Wunderground v.1.15,2013-02-08 22:43:00,
2013-02-08 17:48:00,35.4,28.3,29.59,NNE,16,3.0,18.0,75,0.00,,,0.00,0,Wunderground v.1.15,2013-02-08 22:48:00,
2013-02-08 17:54:00,35.3,28.2,29.59,North,2,3.0,13.0,75,0.00,,,0.00,0,Wunderground v.1.15,2013-02-08 22:54:00,
2013-02-08 17:59:00,35.3,28.2,29.59,North,4,9.0,13.0,75,0.00,,,0.00,0,Wunderground v.1.15,2013-02-08 22:59:00,
2013-02-08 18:04:00,34.9,27.8,29.59,NE,49,5.0,19.0,75,0.00,,,0.00,0,Wunderground v.1.15,2013-02-08 23:04:00,
2013-02-08 18:09:00,35.1,28.0,29.59,NNW,329,2.0,19.0,75,0.00,,,0.00,0,Wunderground v.1.15,2013-02-08 23:09:00,
2013-02-08 18:14:00,35.0,27.9,29.59,NE,38,17.0,18.0,75,0.00,,,0.00,0,Wunderground v.1.15,2013-02-08 23:14:00,
2013-02-08 18:19:00,34.9,27.8,29.59,NNE,23,8.0,18.0,75,0.00,,,0.00,0,Wunderground v.1.15,2013-02-08 23:19:00,
2013-02-08 18:24:00,35.0,27.9,29.59,NE,40,7.0,14.0,75,0.00,,,0.00,0,Wunderground v.1.15,2013-02-08 23:24:00,
2013-02-08 18:29:00,35.0,27.9,29.59,NNW,343,7.0,17.0,75,0.00,,,0.00,0,Wunderground v.1.15,2013-02-08 23:29:00,
2013-02-08 18:35:00,34.8,27.7,29.59,NNE,33,10.0,18.0,75,0.00,,,0.00,0,Wunderground v.1.15,2013-02-08 23:35:00,
2013-02-08 18:40:00,34.8,27.7,29.59,North,8,6.0,8.0,75,0.00,,,0.00,0,Wunderground v.1.15,2013-02-08 23:40:00,
2013-02-08 18:45:00,34.9,27.8,29.58,North,3,8.0,18.0,75,0.00,,,0.00,0,Wunderground v.1.15,2013-02-08 23:45:00,
2013-02-08 18:50:00,34.7,27.6,29.58,NNE,27,10.0,10.0,75,0.00,,,0.00,0,Wunderground v.1.15,2013-02-08 23:50:00,
2013-02-08 18:55:00,34.7,27.6,29.59,North,352,9.0,16.0,75,0.00,,,0.00,0,Wunderground v.1.15,2013-02-08 23:55:00,
2013-02-08 19:00:00,34.9,27.8,29.60,North,352,6.0,8.0,75,0.00,,,0.00,0,Wunderground v.1.15,2013-02-09 00:00:00,
2013-02-08 19:05:00,34.6,27.5,29.60,North,7,5.0,10.0,75,0.00,,,0.00,0,Wunderground v.1.15,2013-02-09 00:05:00,
2013-02-08 19:10:00,34.8,27.7,29.60,NNW,343,11.0,13.0,75,0.00,,,0.00,0,Wunderground v.1.15,2013-02-09 00:10:00,
2013-02-08 19:15:00,34.6,27.5,29.61,North,7,6.0,13.0,75,0.00,,,0.00,0,Wunderground v.1.15,2013-02-09 00:15:00,
2013-02-08 19:20:00,34.4,27.3,29.60,North,1,6.0,8.0,75,0.00,,,0.00,0,Wunderground v.1.15,2013-02-09 00:20:00,
2013-02-08 19:25:00,34.3,27.2,29.60,North,358,6.0,9.0,75,0.00,,,0.00,0,Wunderground v.1.15,2013-02-09 00:25:00,
2013-02-08 19:30:00,34.5,27.4,29.60,North,357,8.0,8.0,75,0.00,,,0.00,0,Wunderground v.1.15,2013-02-09 00:30:00,
2013-02-08 19:35:00,34.1,27.0,29.60,North,9,2.0,9.0,75,0.00,,,0.00,0,Wunderground v.1.15,2013-02-09 00:35:00,
2013-02-08 19:40:00,33.9,26.8,29.61,NNW,338,16.0,16.0,75,0.00,,,0.00,0,Wunderground v.1.15,2013-02-09 00:40:00,
2013-02-08 19:45:00,34.1,27.0,29.61,NNW,340,11.0,16.0,75,0.00,,,0.00,0,Wunderground v.1.15,2013-02-09 00:45:00,
2013-02-08 19:50:00,34.1,27.0,29.61,NNW,327,8.0,13.0,75,0.00,,,0.00,0,Wunderground v.1.15,2013-02-09 00:50:00,
2013-02-08 19:55:00,34.0,26.9,29.61,NNW,333,7.0,13.0,75,0.00,,,0.00,0,Wunderground v.1.15,2013-02-09 00:55:00,
2013-02-08 20:00:00,33.9,26.8,29.60,North,354,5.0,11.0,75,0.00,,,0.00,0,Wunderground v.1.15,2013-02-09 01:00:00,
2013-02-08 20:05:00,33.7,26.3,29.60,North,359,10.0,13.0,74,0.00,,,0.00,0,Wunderground v.1.15,2013-02-09 01:05:00,
2013-02-08 20:10:00,33.6,26.2,29.61,NW,312,5.0,5.0,74,0.00,,,0.00,0,Wunderground v.1.15,2013-02-09 01:10:00,
2013-02-08 20:15:00,33.5,26.1,29.61,NNW,328,4.0,16.0,74,0.00,,,0.00,0,Wunderground v.1.15,2013-02-09 01:15:00,
2013-02-08 20:20:00,33.5,26.1,29.61,NW,326,4.0,4.0,74,0.00,,,0.00,0,Wunderground v.1.15,2013-02-09 01:20:00,
2013-02-08 20:25:00,33.4,26.0,29.62,NNW,334,5.0,13.0,74,0.00,,,0.00,0,Wunderground v.1.15,2013-02-09 01:25:00,
2013-02-08 20:30:00,33.5,26.1,29.62,NNW,332,0.0,7.0,74,0.00,,,0.00,0,Wunderground v.1.15,2013-02-09 01:30:00,
2013-02-08 20:35:00,33.4,26.0,29.63,West,278,10.0,10.0,74,0.00,,,0.00,0,Wunderground v.1.15,2013-02-09 01:35:00,
2013-02-08 20:40:00,33.4,26.0,29.63,NW,316,9.0,10.0,74,0.00,,,0.00,0,Wunderground v.1.15,2013-02-09 01:40:00,
2013-02-08 20:45:00,33.4,26.0,29.63,NW,306,5.0,17.0,74,0.00,,,0.00,0,Wunderground v.1.15,2013-02-09 01:45:00,
2013-02-08 20:51:00,33.0,25.6,29.63,West,270,4.0,9.0,74,0.00,,,0.00,0,Wunderground v.1.15,2013-02-09 01:51:00,
2013-02-08 20:56:00,32.7,25.3,29.64,NW,313,2.0,11.0,74,0.00,,,0.00,0,Wunderground v.1.15,2013-02-09 01:56:00,
2013-02-08 21:01:00,32.4,25.0,29.64,NW,307,4.0,7.0,74,0.00,,,0.00,0,Wunderground v.1.15,2013-02-09 02:01:00,
2013-02-08 21:06:00,32.1,24.7,29.64,NNW,337,3.0,12.0,74,0.00,,,0.00,0,Wunderground v.1.15,2013-02-09 02:06:00,
2013-02-08 21:10:00,32.0,24.6,29.65,NNW,330,5.0,9.0,74,0.00,,,0.00,0,Wunderground v.1.15,2013-02-09 02:10:00,
2013-02-08 21:16:00,31.8,24.8,29.65,NW,311,8.0,9.0,75,0.00,,,0.00,0,Wunderground v.1.15,2013-02-09 02:16:00,
2013-02-08 21:21:00,31.9,24.9,29.65,WNW,290,8.0,10.0,75,0.00,,,0.00,0,Wunderground v.1.15,2013-02-09 02:21:00,
2013-02-08 21:26:00,31.7,24.7,29.65,WNW,292,3.0,13.0,75,0.00,,,0.00,0,Wunderground v.1.15,2013-02-09 02:26:00,
2013-02-08 21:31:00,31.6,24.6,29.66,NNW,345,9.0,9.0,75,0.00,,,0.00,0,Wunderground v.1.15,2013-02-09 02:31:00,
2013-02-08 21:36:00,31.5,24.5,29.66,NNW,334,4.0,11.0,75,0.00,,,0.00,0,Wunderground v.1.15,2013-02-09 02:36:00,
2013-02-08 21:41:00,31.5,24.5,29.66,NW,323,4.0,5.0,75,0.00,,,0.00,0,Wunderground v.1.15,2013-02-09 02:41:00,
2013-02-08 21:46:00,31.5,24.5,29.66,NNW,340,2.0,8.0,75,0.00,,,0.00,0,Wunderground v.1.15,2013-02-09 02:46:00,
2013-02-08 21:51:00,31.3,24.3,29.67,NNW,340,3.0,6.0,75,0.00,,,0.00,0,Wunderground v.1.15,2013-02-09 02:51:00,
2013-02-08 21:56:00,31.3,24.3,29.67,NNW,338,7.0,12.0,75,0.00,,,0.00,0,Wunderground v.1.15,2013-02-09 02:56:00,
2013-02-08 22:01:00,31.3,24.3,29.67,NNW,347,5.0,12.0,75,0.00,,,0.00,0,Wunderground v.1.15,2013-02-09 03:01:00,
2013-02-08 22:06:00,31.4,24.4,29.67,NW,322,5.0,12.0,75,0.00,,,0.00,0,Wunderground v.1.15,2013-02-09 03:06:00,
2013-02-08 22:11:00,31.2,24.2,29.67,NW,321,4.0,12.0,75,0.00,,,0.00,0,Wunderground v.1.15,2013-02-09 03:11:00,
2013-02-08 22:16:00,31.3,24.6,29.68,North,351,6.0,19.0,76,0.00,,,0.00,0,Wunderground v.1.15,2013-02-09 03:16:00,
2013-02-08 22:21:00,31.2,24.5,29.68,NW,317,5.0,11.0,76,0.00,,,0.00,0,Wunderground v.1.15,2013-02-09 03:21:00,
2013-02-08 22:26:00,31.1,24.4,29.68,NW,316,8.0,14.0,76,0.00,,,0.00,0,Wunderground v.1.15,2013-02-09 03:26:00,
2013-02-08 22:31:00,31.0,24.3,29.68,NW,325,8.0,13.0,76,0.00,,,0.00,0,Wunderground v.1.15,2013-02-09 03:31:00,
2013-02-08 22:36:00,31.3,24.6,29.68,NNW,347,5.0,15.0,76,0.00,,,0.00,0,Wunderground v.1.15,2013-02-09 03:36:00,
2013-02-08 22:41:00,31.2,24.5,29.68,NW,325,3.0,11.0,76,0.00,,,0.00,0,Wunderground v.1.15,2013-02-09 03:41:00,
2013-02-08 22:46:00,31.1,24.4,29.69,NW,323,5.0,12.0,76,0.00,,,0.00,0,Wunderground v.1.15,2013-02-09 03:46:00,
2013-02-08 22:51:00,31.3,24.6,29.69,NNW,327,6.0,10.0,76,0.00,,,0.00,0,Wunderground v.1.15,2013-02-09 03:51:00,
2013-02-08 22:56:00,31.1,24.4,29.69,North,350,4.0,14.0,76,0.00,,,0.00,0,Wunderground v.1.15,2013-02-09 03:56:00,
2013-02-08 23:01:00,31.2,24.5,29.69,North,350,6.0,8.0,76,0.00,,,0.00,0,Wunderground v.1.15,2013-02-09 04:01:00,
2013-02-08 23:06:00,31.2,24.5,29.69,North,357,4.0,14.0,76,0.00,,,0.00,0,Wunderground v.1.15,2013-02-09 04:06:00,
2013-02-08 23:11:00,30.9,24.2,29.70,NNW,343,4.0,8.0,76,0.00,,,0.00,0,Wunderground v.1.15,2013-02-09 04:11:00,
2013-02-08 23:16:00,30.6,23.9,29.70,North,350,8.0,13.0,76,0.00,,,0.00,0,Wunderground v.1.15,2013-02-09 04:16:00,
2013-02-08 23:21:00,30.6,23.9,29.70,NW,321,5.0,11.0,76,0.00,,,0.00,0,Wunderground v.1.15,2013-02-09 04:21:00,
2013-02-08 23:26:00,30.4,23.7,29.71,NNW,343,5.0,11.0,76,0.00,,,0.00,0,Wunderground v.1.15,2013-02-09 04:26:00,
2013-02-08 23:31:00,30.3,23.6,29.71,NW,319,11.0,13.0,76,0.00,,,0.00,0,Wunderground v.1.15,2013-02-09 04:31:00,
2013-02-08 23:36:00,30.1,23.4,29.71,NW,306,2.0,17.0,76,0.00,,,0.00,0,Wunderground v.1.15,2013-02-09 04:36:00,
2013-02-08 23:41:00,29.9,23.3,29.71,NW,312,7.0,12.0,76,0.00,,,0.00,0,Wunderground v.1.15,2013-02-09 04:41:00,
2013-02-08 23:46:00,29.5,22.9,29.72,NNW,330,2.0,14.0,76,0.00,,,0.00,0,Wunderground v.1.15,2013-02-09 04:46:00,
2013-02-08 23:52:00,29.6,23.0,29.72,NNW,339,5.0,14.0,76,0.00,,,0.00,0,Wunderground v.1.15,2013-02-09 04:52:00,
2013-02-08 23:57:00,29.4,22.8,29.72,North,0,8.0,15.0,76,0.00,,,0.00,0,Wunderground v.1.15,2013-02-09 04:57:00,